AirNav   Air Wisconsin Up To $57,000 Bonus
 
 1456 users online  

81R San Saba County Municipal Airport
San Saba, Texas, USA

GOING TO SAN SABA?


FAA INFORMATION EFFECTIVE 07 NOVEMBER 2019

Location

FAA Identifier: 81R
Lat/Long: 31-14-08.7015N 098-43-03.7275W
31-14.145025N 098-43.062125W
31.2357504,-98.7177021
(estimated)
Elevation: 1255 ft. / 383 m (estimated)
Variation: 07E (1985)
From city: 3 miles N of SAN SABA, TX
Time zone: UTC -6 (UTC -5 during Daylight Saving Time)
Zip code: 76877

Airport Operations

Airport use: Open to the public
Activation date: 08/1963
Control tower: no
ARTCC: HOUSTON CENTER
FSS: SAN ANGELO FLIGHT SERVICE STATION
NOTAMs facility: SJT (NOTAM-D service available)
Attendance: UNATNDD
Wind indicator: lighted
Segmented circle: yes
Lights: DUSK-DAWN. ACTVT MIRL RY 13/31 - CTAF.
Beacon: white-green (lighted land airport)
Operates sunset to sunrise.

Airport Communications

CTAF/UNICOM: 122.8
WX AWOS-3: PHONE 325-372-6027

Nearby radio navigation aids

VOR radial/distance  VOR name  Freq  Var
LLOr360/26.6LLANO VORTAC108.2008E
AGJr271/29.7GOOCH SPRINGS VORTAC112.5005E

Airport Services

Fuel available: 100LL
EMERG FUEL ONLY CALL 325-372-3722.
Parking: tiedowns
Airframe service: NONE
Powerplant service: NONE
Bottled oxygen: NONE
Bulk oxygen: NONE

Runway Information

Runway 13/31

Dimensions: 4205 x 60 ft. / 1282 x 18 m
Surface: asphalt, in good condition
Weight bearing capacity: 
Single wheel: 12.5
Runway edge lights: medium intensity
RUNWAY 13  RUNWAY 31
Latitude: 31-14.385783N31-13.904267N
Longitude: 098-43.352683W098-42.771567W
Elevation: 1255.2 ft.1245.7 ft.
Traffic pattern: leftleft
Runway heading: 127 magnetic, 134 true307 magnetic, 314 true
Markings: basic, in good conditionbasic, in good condition
Visual slope indicator: 2-light PAPI on left (3.00 degrees glide path)2-light PAPI on left (3.00 degrees glide path)
Obstructions: 4 ft. hill, 340 ft. from runway, 35:1 slope to clear20 ft. tree, 536 ft. from runway, 55 ft. left of centerline, 16:1 slope to clear

Airport Ownership and Management from official FAA records

Ownership: Publicly-owned
Owner: SAN SABA CITY COUNTY
500 E. WALLACE
SAN SABA, TX 76877
Phone 325-372-5144
Manager: STEVE DYER
567 C.R. 105
SAN SABA, TX 76877
Phone 325-372-3380

Airport Operational Statistics

Aircraft based on the field: 6
Single engine airplanes: 6
    
Aircraft operations: avg 54/week *
43% local general aviation
36% military
22% transient general aviation
* for 12-month period ending 31 March 2014

Additional Remarks

RWY 13 -10 FT DRAINAGE DITCH 30-180 FT FM THLD, 60 FT RIGHT OF CNTRLN; -5 FT DITCH 80 FT LEFT OF CNTRLN NEAR THLD; -5 FT DITCH 118 FT RIGHT OF CNTRLN NEAR THLD
FOR CD CTC HOUSTON ARTCC AT 281-230-5622.

Instrument Procedures

There are no published instrument procedures at 81R.

Some nearby airports with instrument procedures:

KAQO - Llano Municipal Airport (27 nm S)
KLZZ - Lampasas Airport (28 nm E)
KBBD - Curtis Field Airport (31 nm W)
KBWD - Brownwood Regional Airport (36 nm N)
T92 - Mason County Airport (39 nm SW)
 
Loc | Ops | Rwys | IFR | FBO | Links
Com | Nav | Svcs | Stats | Notes
Area around 81R (San Saba County Municipal Airport)
 
Road maps at: MapQuest Bing Google
 
Aerial photo
WARNING: Photo may not be current or correct
Aerial photo of 81R (San Saba County Municipal Airport)
Photo taken 27-Feb-2005

Do you have a better or more recent aerial photo of San Saba County Municipal Airport that you would like to share? If so, please send us your photo.

 
Sectional chart

 
Airport distance calculator
Flying to San Saba County Municipal Airport? Find the distance to fly.

From to 81R

Sunrise and sunset
Times for 13-Nov-2019
 Local
(UTC-6)
 Zulu
(UTC)
Morning civil twilight06:3612:36
Sunrise07:0213:02
Sunset17:3723:37
Evening civil twilight18:0200:02

Current date and time
Zulu (UTC)  13-Nov-2019 16:11:01
Local (UTC-6)  13-Nov-2019 10:11:01
 
METAR
KAQO 
27nm S 
131555Z AUTO 16005KT 10SM SCT110 03/M06 A3030 RMK AO2
KLZZ 
28nm E 
131555Z AUTO 18006KT 10SM BKN090 01/M08 A3024 RMK AO2 T00121083
KBBD 
31nm W 
131555Z AUTO 19011G18KT 10SM OVC080 03/M07 A3019 RMK AO2
KBWD 
36nm N 
131555Z AUTO 17010KT 10SM CLR 02/M07 A3021 RMK AO1
KMNZ 
39nm NE 
131555Z AUTO 19010KT 10SM CLR 02/M08 A3024 RMK AO2 T00211078
KMKN 
41nm N 
131555Z AUTO 18010KT 10SM CLR 03/M06 A3021 RMK AO2 T00281065
KDZB 
46nm SE 
131558Z AUTO 19006KT 10SM OVC080 03/M08 A3028 RMK AO2
KGRK 
47nm E 
131558Z AUTO 14012KT 10SM OVC160 01/M07 A3024 RMK AO2 SLP250 T00131071 $
KGOP 
48nm E 
131555Z AUTO 13008KT 10SM CLR 02/M08 A3028 RMK AO2
TAF
KBBD 
31nm W 
131131Z 1312/1412 VRB03KT P6SM SCT250 FM131800 18012G18KT P6SM OVC100 FM132100 19012KT P6SM OVC070 FM140600 19003KT 5SM BR VCSH BKN025 FM140800 VRB03KT 5SM BR VCSH BKN018
NOTAMs
Click for the latest NOTAMs
NOTAMs are issued by the DoD/FAA and will open in a separate window not controlled by AirNav.

 

 
 

FBO, Fuel Providers, and Aircraft Ground Support

  
 Business Name 
 
 Contact 
 
 Services / Description 
 
Fuel Prices
 
Comments
  
San Saba County Municipal Airport 325-372-3380
no information available

If you are affiliated with San Saba County Municipal Airport and would like to show here your services, contact info, web link, logo, and more, click here
100LL
AS $4.50 
 Updated 12-Jun-2019
 
   write
AS=Assisted/Self Service
Update Fuel Prices
 

Would you like to see your business listed on this page?

 If your business provides an interesting product or service to pilots, flight crews, aircraft, or users of the San Saba County Municipal Airport, you should consider listing it here.  To start the listing process, click on the button below
 
Add a business
 

Other Pages about San Saba County Municipal Airport

Update a link
 
Copyright © AirNav, LLC. All rights reserved. Privacy Policy  Contact